Location: Unspecified
(0.0000°N, 0.0000°E)
Time: 22:30:34
(UTC+00:00)

Tiangong - Pass Details

Date: 21 September 2023
Orbit: 370 x 384 km, 41.5° (Epoch: 04 October)

Event Time Altitude Azimuth Distance (km) Brightness Sun altitude
Rises 18:56:40 0° 222° (SW) 2,255 2.4 -15.9°
Reaches altitude 10° 18:58:46 10° 219° (SW) 1,396 1.2 -16.4°
Maximum altitude 19:01:53 65° 136° (SE) 419 -2.2 -17.2°
Enters shadow 19:02:15 57° 94° (E) 447 -2.2 -17.3°
